RH
9 10 11 9 6 5 5 5 6 7 7 7 7 6 5 5 5 4 5 5 5 5 6 7 7 7 7 7 7 6 7 6 6 5 5 6 6 8 8 10 12 14 12 11 13 11 13 11 11 15 15 30 50 65 49 38 63 58 60 78 75 76 78 79 73 64 57 49 49 49 51 49 38 32 30 32 32 30 30 28 29 29 27 29 35 42 42 39
10 11 11 9 7 5 5 5 6 7 7 7 6 6 6 5 5 5 5 5 6 6 5 6 6 7 7 7 7 6 7 5 6 5 6 7 6 10 9 10 12 13 12 11 13 10 14 14 13 20 34 61 76 69 51 42 51 57 66 72 67 63 58 55 52 55 56 51 53 50 42 35 28 25 23 28 33 36 36 34 33 30 31 32 39 48 46 44
10 12 12 10 8 6 5 5 5 7 7 7 7 6 6 5 5 5 6 6 6 6 6 6 6 6 7 7 7 7 6 6 7 6 7 7 8 10 9 11 12 12 12 13 14 11 13 14 17 33 62 83 73 74 77 52 50 61 60 52 47 46 46 45 44 51 55 49 49 48 37 25 25 26 26 30 35 39 39 40 39 35 37 36 41 48 47 48
10 12 14 11 8 6 5 6 6 7 7 7 7 6 6 6 6 6 6 6 6 7 7 6 6 6 6 7 7 7 6 7 7 6 6 7 9 10 11 12 12 12 12 15 14 10 13 15 31 59 85 87 68 84 91 51 38 47 42 34 31 35 37 36 39 48 56 50 38 34 33 29 30 30 32 37 39 41 41 45 44 38 41 41 46 50 49 52
9 12 14 12 9 7 5 6 6 7 8 8 7 7 7 6 6 6 6 6 7 7 7 7 7 6 6 6 6 7 7 7 7 6 6 8 10 11 12 11 12 13 12 17 13 14 29 38 58 81 90 83 71 78 71 40 29 34 38 33 27 30 29 31 39 45 51 47 33 28 30 32 34 31 33 38 40 42 43 45 45 45 50 50 54 54 53 58
9 11 14 13 10 7 6 6 6 7 8 7 8 7 7 7 6 7 6 7 7 8 9 9 8 8 7 6 6 6 7 10 7 5 8 9 11 11 12 12 12 13 13 16 13 22 44 64 84 89 84 75 67 62 45 31 33 38 41 35 31 28 24 30 33 33 36 33 29 31 31 30 33 33 33 37 38 41 46 49 51 56 60 55 56 55 54 59
9 10 14 14 10 8 7 6 7 7 7 8 8 7 7 7 6 7 7 8 9 11 12 11 11 9 8 7 6 5 6 10 7 6 9 9 11 11 11 12 13 14 14 14 20 38 57 83 98 84 79 74 53 42 35 33 40 45 40 34 33 26 25 29 25 27 31 30 29 31 33 33 35 35 35 37 38 44 52 54 55 60 62 60 59 59 63 65
8 9 14 15 11 8 7 7 7 7 7 7 7 7 7 7 7 8 8 11 12 13 13 12 12 10 11 9 7 10 8 7 7 8 9 10 11 11 11 12 13 13 14 13 23 46 68 91 94 78 75 68 50 39 34 38 40 41 40 36 31 24 28 28 27 34 33 34 34 33 35 35 37 35 36 40 45 53 57 58 60 63 65 65 65 67 70 68
8 8 12 16 13 9 7 7 7 7 8 7 8 8 7 8 8 10 12 14 15 15 14 13 12 11 11 10 9 12 10 6 8 8 9 11 10 10 12 12 12 13 14 14 21 44 77 93 84 84 79 57 54 49 37 40 39 38 38 33 29 27 32 30 32 40 38 40 38 35 34 34 38 35 37 45 51 58 61 63 66 67 69 68 67 70 70 65
8 7 10 16 14 9 8 7 7 8 7 8 8 8 10 10 11 14 16 16 16 16 15 15 14 13 12 11 12 11 7 7 8 9 11 11 10 12 12 12 13 13 13 16 26 47 80 96 81 80 78 55 53 47 36 41 39 43 42 32 33 34 36 37 41 47 49 47 40 38 37 36 40 38 40 46 52 61 64 67 66 65 69 70 70 69 65 60
8 7 8 14 15 11 8 7 8 8 9 11 12 13 15 15 17 17 17 18 18 17 16 16 14 15 14 11 17 16 8 8 9 10 11 10 11 12 11 13 13 12 16 22 40 65 79 85 73 68 69 51 43 39 39 45 43 53 52 39 43 44 41 44 49 54 53 48 45 44 41 40 43 43 46 47 53 61 64 68 68 68 68 68 69 64 58 53
8 7 7 12 15 11 8 8 8 10 13 13 14 15 15 15 16 15 17 17 15 14 14 14 14 15 13 13 24 21 8 8 11 10 11 11 11 13 13 13 14 13 19 25 45 72 67 55 55 62 65 46 38 40 39 46 47 57 61 50 52 54 50 49 50 53 49 47 52 50 44 47 47 44 46 48 54 57 61 70 71 70 70 66 64 59 54 51
8 7 7 11 16 12 9 8 9 13 12 12 12 11 11 11 11 11 12 11 11 13 11 12 13 13 13 17 24 17 9 10 11 11 11 12 12 12 13 13 15 15 26 46 54 57 52 50 54 58 60 44 37 39 40 52 54 57 63 55 57 61 55 55 56 55 48 46 53 54 52 54 50 46 46 49 53 54 60 72 75 75 72 66 64 61 57 53
9 7 7 9 15 12 10 9 10 13 11 12 12 11 12 11 11 11 10 11 12 11 12 15 14 14 15 17 19 12 11 12 11 14 11 12 13 13 14 14 20 26 44 70 61 49 57 63 53 47 56 46 34 41 53 67 66 64 62 51 59 65 56 58 58 51 45 46 55 57 53 52 50 50 47 45 51 57 63 69 74 76 71 66 64 62 61 58
10 7 6 8 15 12 10 9 11 13 11 14 13 14 14 12 13 12 12 14 13 15 16 15 15 23 22 16 17 12 12 14 13 15 13 14 15 13 15 16 30 42 52 59 52 56 68 67 57 47 53 50 42 52 60 65 66 70 71 61 63 65 59 59 51 43 43 46 53 52 47 47 46 46 44 45 51 59 67 69 68 68 67 66 62 63 65 61
13 8 6 8 13 13 11 10 12 12 12 15 14 16 14 13 15 13 17 16 16 19 14 18 25 30 28 17 15 14 12 15 14 15 16 15 15 16 15 20 39 46 46 44 46 63 68 72 78 58 49 51 54 63 61 58 60 65 75 74 65 59 58 56 51 49 46 44 49 49 48 46 40 40 43 48 51 54 65 75 72 65 63 61 59 63 64 58
16 8 5 8 12 14 11 10 13 12 14 16 15 17 14 16 16 16 20 16 19 17 15 36 40 37 42 24 13 16 15 16 16 16 18 14 15 18 14 25 44 44 48 51 51 63 62 64 69 56 57 60 59 68 65 59 59 61 73 76 66 58 56 56 57 54 44 41 48 51 50 47 41 39 37 37 42 47 56 66 66 60 52 51 55 57 54 55
20 9 6 8 11 14 11 11 13 12 16 17 17 18 15 17 18 21 23 15 19 16 17 33 30 44 56 28 19 23 17 19 18 15 18 15 15 20 21 32 45 45 60 71 71 79 70 60 57 52 65 68 63 70 71 70 65 61 68 71 66 61 55 49 45 46 45 45 52 54 49 45 43 39 33 34 39 36 39 43 46 49 42 41 49 44 44 54
23 10 6 7 10 14 11 11 13 13 17 17 18 18 19 25 22 24 27 24 27 20 22 24 29 65 61 32 37 28 15 19 18 17 18 15 22 33 36 43 51 55 63 65 73 88 74 62 62 56 59 64 61 59 68 78 65 53 56 57 59 59 55 45 33 38 52 56 57 58 51 45 46 46 41 42 42 32 31 34 34 40 42 47 49 38 40 52
26 13 7 7 9 14 12 12 13 14 17 16 21 23 29 39 38 34 33 44 43 28 34 28 36 75 57 36 43 24 14 21 28 32 21 26 50 58 50 51 62 70 73 64 68 84 75 66 67 59 57 62 54 47 68 83 68 57 55 51 52 55 55 47 37 42 59 63 55 55 56 49 47 51 50 45 42 36 34 39 36 36 42 50 51 40 42 48
29 16 8 6 9 13 12 13 13 15 16 16 22 27 28 34 43 42 36 46 38 30 59 54 52 82 63 39 37 22 17 22 39 44 30 48 78 79 67 64 68 70 74 71 70 77 74 73 71 58 55 58 50 50 71 83 75 68 58 55 58 55 51 46 48 55 61 63 55 53 53 50 49 49 48 41 36 33 29 33 34 34 39 41 41 38 38 39
31 19 9 6 8 12 12 13 13 15 16 16 22 25 22 21 27 28 29 44 33 29 66 69 65 82 66 45 36 28 24 27 44 40 37 68 86 84 77 75 77 74 75 75 72 74 71 70 71 64 58 58 61 65 66 64 67 65 56 59 62 56 49 45 57 60 53 57 56 53 47 43 44 41 41 38 33 31 25 25 25 27 30 29 31 33 34 38
34 23 10 6 8 11 13 12 13 16 16 17 21 21 23 22 17 15 26 43 35 27 39 45 53 59 54 49 32 25 37 55 63 44 48 77 82 80 79 79 80 73 77 77 74 80 77 71 73 73 67 63 71 67 53 51 58 59 57 64 70 66 52 45 61 59 46 48 47 51 50 42 42 40 37 36 34 32 25 23 23 22 24 23 26 28 30 36
36 26 12 6 8 11 13 12 13 16 16 18 21 20 24 25 16 17 31 37 32 30 23 25 43 43 44 47 27 29 57 76 75 56 61 79 81 82 82 88 88 79 81 79 79 85 76 72 75 73 65 64 69 56 45 52 53 55 62 69 78 72 52 52 72 63 47 50 48 50 51 44 50 50 41 38 37 34 27 25 25 22 23 24 23 24 26 30
37 30 15 6 7 10 13 13 13 16 17 19 23 22 25 30 19 16 37 44 34 32 26 28 42 42 41 37 33 59 83 82 75 68 73 79 84 89 86 90 90 85 87 78 82 88 70 64 68 65 61 62 66 55 48 48 45 59 69 66 68 64 53 62 77 66 56 64 61 54 50 46 52 54 46 41 39 37 34 34 32 25 24 25 25 25 27 27
38 33 19 7 7 10 12 13 13 16 17 18 23 21 24 33 20 13 43 58 37 25 31 39 41 40 41 31 33 68 84 74 73 74 73 72 78 88 86 85 80 75 85 84 85 90 77 64 62 67 72 70 65 61 61 55 49 64 71 63 62 63 64 70 75 71 69 70 64 59 61 59 57 59 54 44 41 43 38 35 34 27 23 25 27 26 24 22
40 35 22 8 7 9 11 14 13 15 18 18 22 20 24 32 20 21 55 73 51 29 32 46 48 44 46 38 36 64 80 72 66 57 62 77 80 83 87 87 82 73 80 87 82 83 81 69 65 73 81 76 64 59 61 54 51 63 68 65 68 73 76 75 73 72 71 69 63 62 67 64 56 57 58 54 51 44 33 29 27 24 20 19 20 19 17 15
41 37 25 10 6 9 12 14 12 15 18 19 22 19 24 31 19 23 57 72 55 33 29 46 53 39 36 39 46 76 84 69 61 41 47 82 78 74 92 89 82 80 78 79 77 78 80 77 74 71 73 70 61 58 53 46 56 66 63 64 71 78 83 84 78 67 63 65 66 64 64 64 60 57 58 63 62 48 35 30 24 20 19 15 14 13 12 13
42 38 28 13 6 8 11 14 13 15 18 19 22 20 23 28 21 28 51 54 38 26 25 37 37 22 23 34 49 78 75 56 67 54 44 75 69 60 86 84 76 82 75 68 73 78 77 77 78 71 68 65 56 54 49 52 68 70 69 72 74 78 81 84 80 69 63 65 71 72 63 60 63 66 67 64 59 51 42 33 23 19 16 13 13 12 12 15
43 39 31 15 6 8 10 14 13 14 19 20 21 21 23 24 25 41 50 42 38 32 25 29 28 17 17 27 38 62 69 60 78 77 56 69 67 55 69 73 71 77 73 67 72 73 64 61 69 65 58 53 46 41 43 56 65 65 77 81 77 86 87 80 79 77 72 64 69 74 61 49 47 50 56 54 48 44 37 30 24 22 18 15 16 16 16 19
43 40 34 17 7 8 9 14 13 14 18 20 22 21 22 23 27 44 41 35 49 42 23 22 23 17 14 28 46 54 62 68 76 79 64 60 65 61 65 68 67 72 75 71 68 62 51 56 65 54 42 46 52 52 54 63 65 67 85 90 86 90 85 81 82 79 74 61 57 63 58 49 43 40 41 41 40 37 34 33 30 25 23 21 20 19 19 19
44 42 37 19 8 7 10 14 12 15 16 18 24 19 22 29 30 42 34 24 42 36 20 23 20 15 12 30 64 68 66 73 66 65 67 67 72 69 67 69 66 68 73 71 67 61 58 65 61 41 33 41 62 80 77 76 74 69 78 92 93 82 74 83 85 78 73 62 55 59 58 52 48 44 38 33 37 38 33 33 32 28 24 22 21 20 19 18
44 45 38 22 10 5 10 14 11 15 16 17 24 19 26 35 30 47 44 25 36 30 16 28 25 14 14 34 68 76 75 75 61 62 71 70 72 67 64 71 66 64 72 72 72 72 69 62 47 41 39 35 60 90 90 90 89 74 73 86 85 75 76 82 79 76 74 64 62 63 61 60 54 47 38 32 35 39 36 31 28 26 23 22 21 18 17 16
45 47 41 25 11 5 9 13 12 16 14 17 23 17 31 42 31 48 52 33 42 32 11 32 38 15 14 44 66 66 71 75 64 70 77 69 71 69 67 73 68 66 74 74 74 80 81 69 55 60 55 41 62 88 87 92 91 76 74 78 75 73 71 66 67 76 80 76 71 61 59 63 55 43 37 35 36 34 33 32 27 25 23 21 19 14 14 13
49 48 44 28 11 6 9 11 14 15 13 18 21 16 35 48 33 37 42 33 42 34 15 34 47 28 26 55 72 64 67 73 67 72 76 69 72 75 72 71 65 66 74 74 71 73 78 80 69 56 46 47 74 92 85 84 79 69 68 72 77 71 56 59 72 73 75 80 70 57 62 65 54 44 36 36 43 36 29 31 29 26 24 21 17 13 12 12
54 49 46 32 11 7 9 11 15 13 13 18 17 21 37 39 34 41 45 40 42 38 30 36 45 49 54 66 74 68 66 71 70 73 78 72 72 79 79 71 62 66 74 68 68 72 78 91 80 48 36 43 64 82 75 65 66 69 74 79 79 67 57 71 82 72 72 82 72 60 62 60 54 52 40 37 45 37 28 31 29 25 25 21 19 15 12 12
58 50 46 35 14 7 9 11 15 13 14 17 14 25 33 26 37 57 58 53 44 34 36 43 45 57 71 73 71 71 70 68 64 69 78 74 68 72 76 73 66 70 74 63 66 75 73 85 83 56 45 38 39 57 51 38 48 62 70 71 62 59 67 70 65 67 81 86 79 70 61 56 58 54 43 43 45 33 27 30 28 25 23 20 21 19 15 13
57 49 48 39 17 8 9 10 15 13 13 15 16 25 28 28 44 51 48 53 47 30 35 53 55 57 77 84 74 70 72 69 65 72 81 71 60 62 70 76 68 64 72 69 68 69 60 72 81 68 63 44 23 36 40 32 36 41 51 59 55 61 75 75 65 72 89 89 85 82 68 64 69 58 46 44 41 32 28 30 28 25 22 20 21 21 19 16
55 49 49 41 19 8 9 10 13 14 13 14 19 24 26 37 53 46 37 46 45 33 36 53 56 53 70 86 80 71 71 76 75 75 81 72 62 70 78 82 72 57 60 64 69 74 62 62 69 67 71 55 23 28 50 57 46 30 35 54 66 66 65 74 74 69 83 92 87 81 68 65 69 58 46 43 40 36 31 29 28 24 22 20 19 21 21 19
55 50 50 43 22 9 8 10 12 13 14 15 18 24 28 39 53 48 36 32 31 30 38 57 64 54 55 67 80 78 68 76 80 69 73 74 68 77 83 87 87 68 49 49 71 88 70 55 60 60 60 59 49 45 55 71 64 46 48 61 72 71 59 67 72 64 80 92 85 81 75 71 68 56 49 49 47 43 36 32 28 22 21 19 17 20 22 21
57 52 53 47 26 10 8 9 12 12 14 17 18 24 32 37 44 45 34 23 23 27 34 50 60 59 58 57 69 81 73 78 84 67 62 67 66 71 68 70 89 88 67 58 69 80 65 52 57 57 54 62 76 71 55 59 61 57 71 85 85 75 64 71 78 73 80 83 81 87 80 68 64 56 51 47 41 41 40 35 29 21 18 18 17 19 21 22
61 54 53 52 30 13 9 8 12 14 13 16 17 23 34 38 39 41 32 21 23 27 29 39 44 54 73 68 63 77 77 76 80 67 62 66 68 71 59 50 68 86 83 69 60 58 53 47 49 58 69 77 89 88 60 40 39 41 59 78 79 71 63 65 71 73 76 78 85 90 78 69 67 59 52 43 36 41 42 33 27 21 17 17 17 18 20 23
63 57 54 53 34 15 10 9 12 14 13 16 18 22 33 38 37 38 30 19 24 30 35 50 54 55 72 72 64 74 78 77 80 73 68 67 66 72 64 47 50 62 63 56 56 56 46 42 49 57 68 75 84 88 62 33 30 34 41 56 64 68 64 53 50 55 59 71 87 84 70 71 69 59 56 48 40 44 43 32 25 20 17 17 17 18 20 23
63 62 58 54 40 19 10 9 11 13 15 14 15 23 35 38 34 36 32 21 23 30 34 51 66 65 63 62 67 79 80 81 86 79 74 70 63 66 65 53 52 56 47 40 55 65 46 38 49 54 59 68 72 78 69 46 30 25 41 67 71 63 54 39 34 40 42 52 66 61 54 61 58 51 55 51 40 40 39 30 23 20 18 18 18 19 21 23
57 61 59 54 45 25 11 10 11 13 17 13 14 27 36 36 33 34 36 27 21 25 30 44 61 63 56 52 61 73 73 77 84 80 80 80 67 59 59 57 57 53 39 32 45 57 46 41 49 51 59 68 66 73 80 65 39 24 40 70 71 53 43 33 28 33 37 41 47 45 47 55 54 48 51 48 42 42 39 30 23 21 21 20 19 20 22 24
53 57 58 52 46 28 12 12 10 11 16 12 14 26 30 33 35 32 33 31 24 22 27 43 54 55 53 49 50 63 73 79 79 74 83 92 77 58 54 58 57 46 34 33 41 42 39 45 54 52 56 65 67 74 77 66 57 50 47 59 63 47 34 28 23 24 30 36 42 47 48 47 48 50 47 42 41 43 40 32 24 22 22 21 20 22 24 24
51 55 58 55 54 37 15 11 10 13 21 17 16 27 33 36 36 31 33 33 29 24 24 37 50 50 45 41 39 51 65 75 77 71 78 91 79 56 51 57 52 39 31 33 39 40 37 43 51 50 53 61 66 70 70 61 61 61 59 69 73 50 25 22 23 22 27 31 33 40 45 41 43 50 48 41 37 36 34 28 23 22 22 22 22 23 24 22
52 49 53 55 57 43 20 11 12 17 25 24 20 26 34 35 32 33 39 37 33 32 24 26 39 42 36 36 39 43 48 65 79 71 67 83 85 66 54 52 43 34 33 29 28 34 37 38 40 44 51 55 51 53 57 54 49 44 45 60 65 46 25 23 24 21 25 28 25 31 39 35 34 42 47 44 36 30 29 26 23 22 22 24 24 23 23 21
59 50 54 58 56 45 27 15 13 16 21 24 23 21 23 29 31 34 39 37 36 38 31 26 31 35 36 40 42 40 40 50 64 65 64 79 88 71 55 53 45 34 33 31 28 30 34 34 33 38 48 47 35 35 43 45 41 34 30 37 45 40 30 26 26 23 26 29 26 28 31 26 23 28 35 42 39 30 27 26 22 21 24 25 24 23 22 19
69 60 59 61 56 46 34 20 13 13 15 18 23 24 19 20 26 29 30 33 38 41 37 32 30 33 39 42 42 41 39 37 45 57 62 70 80 73 59 62 60 42 31 34 39 37 32 31 34 36 41 37 27 26 32 32 32 32 31 34 42 42 36 31 28 26 28 29 28 28 27 24 25 27 29 36 36 28 27 28 24 22 24 24 23 22 20 16
73 70 65 61 54 48 42 30 19 18 16 14 19 26 23 18 20 24 25 27 33 39 40 35 31 35 39 40 43 44 39 34 42 54 56 62 78 76 60 59 63 51 41 41 45 44 37 34 36 36 34 30 25 23 24 23 25 30 31 32 36 37 35 33 31 30 31 31 28 26 25 23 28 34 34 32 30 26 27 28 24 21 22 23 22 20 17 15
72 76 74 66 54 47 43 34 28 28 25 17 16 23 25 21 19 25 33 33 29 33 40 38 34 34 34 38 53 58 48 39 42 53 58 57 65 75 71 63 58 51 50 50 48 48 45 40 40 40 33 26 23 20 19 20 24 28 29 29 30 30 30 32 34 32 31 30 26 24 25 24 25 30 32 29 27 27 25 24 24 24 23 21 20 18 16 15
Wind_Speed
23 22 20 18 17 16 15 13 11 10 9 9 8 7 7 7 6 5 5 4 4 3 2 3 3 3 2 2 2 1 1 2 3 5 6 6 7 8 8 9 11 10 10 12 12 13 15 12 13 13 11 11 7 6 2 4 3 6 6 9 11 10 12 10 10 14 15 15 14 14 13 12 12 12 13 13 13 14 14 14 14 15 16 16 15 14 13 12
23 22 21 19 17 16 15 13 11 10 9 9 8 7 7 7 6 5 4 4 4 3 3 3 3 3 3 3 2 1 0 1 3 5 5 5 7 8 8 9 11 10 8 9 9 12 16 13 12 12 10 8 3 2 2 4 1 4 6 7 7 8 11 12 12 13 13 14 12 12 12 12 12 12 12 12 12 12 12 12 13 13 14 14 13 12 11 10
22 22 20 19 17 16 15 13 11 10 9 9 8 8 7 6 6 5 5 4 4 4 3 3 3 3 4 4 3 2 0 1 3 4 4 5 7 8 8 9 10 9 8 8 7 10 15 14 11 8 7 5 1 1 3 3 4 5 6 7 6 7 11 12 12 10 11 12 11 11 12 12 11 11 10 10 10 11 11 11 11 12 11 12 12 11 10 9
20 20 20 18 17 16 14 13 11 10 9 9 8 8 7 7 6 5 5 5 5 5 5 4 4 4 4 4 3 2 1 1 3 4 4 5 8 8 8 9 9 7 9 9 7 11 13 13 11 6 4 1 2 0 3 4 5 5 5 7 7 8 11 12 12 11 9 9 10 11 11 9 9 9 9 9 9 9 10 9 9 10 9 9 9 8 7 7
19 19 19 18 16 15 14 12 11 10 9 8 8 8 7 7 6 6 6 6 6 6 5 5 5 5 4 4 2 2 1 1 3 4 4 7 8 9 8 8 8 6 9 9 7 12 12 12 11 4 2 2 1 0 3 4 5 5 6 8 8 10 11 12 12 12 10 9 9 9 9 8 7 8 8 8 7 7 8 7 7 7 7 6 6 5 5 5
18 18 18 17 16 15 14 12 11 10 9 8 8 8 7 7 7 6 6 6 6 6 5 5 5 5 5 4 3 3 2 2 3 4 5 7 8 8 8 7 8 7 10 10 7 12 11 11 8 1 4 3 2 2 3 4 4 5 6 8 9 10 11 11 11 10 9 8 8 7 7 8 7 7 7 6 6 6 6 5 5 5 5 4 3 3 3 4
17 17 17 16 15 15 14 13 11 10 9 9 8 8 7 7 7 6 6 6 5 4 4 4 5 5 5 4 3 3 3 3 4 5 6 7 8 8 8 7 8 8 10 10 8 12 10 8 1 6 3 2 2 2 2 2 2 3 5 8 8 8 7 7 7 7 6 5 5 4 5 6 6 6 6 6 5 5 5 5 5 5 4 4 3 3 3 3
16 16 16 15 15 14 14 13 11 10 9 8 8 8 7 7 6 6 5 4 4 3 4 4 4 4 4 4 4 2 3 5 5 6 7 7 7 8 7 7 8 9 10 10 9 11 10 4 6 7 5 3 1 1 2 1 1 3 5 8 6 5 5 5 5 5 5 5 4 4 5 5 5 6 6 6 6 6 6 6 6 6 6 5 5 6 6 6
15 16 15 15 14 14 13 12 11 10 9 8 8 8 8 7 6 4 4 3 3 3 4 4 4 3 3 3 4 4 5 6 6 7 8 8 7 7 7 6 7 9 10 9 9 9 7 2 7 4 6 4 1 0 2 1 3 4 5 6 4 5 6 5 4 5 6 6 6 7 8 8 7 7 8 8 7 7 7 7 7 7 8 8 7 8 8 7
15 15 14 14 14 13 13 12 11 10 9 9 8 8 7 6 5 4 4 3 4 4 5 4 4 4 3 4 3 5 6 7 7 8 8 8 7 7 7 7 6 9 9 9 10 8 5 3 5 2 4 3 1 0 1 1 3 4 4 5 6 6 7 7 6 7 7 9 10 10 10 9 9 10 10 9 8 9 8 8 8 9 10 10 10 10 9 10
14 15 14 13 13 13 12 12 11 10 10 9 8 8 7 6 6 5 5 5 6 6 5 5 4 4 3 3 2 5 7 8 8 9 9 8 8 8 7 7 7 8 8 9 8 5 5 6 5 1 1 2 1 1 2 3 3 2 2 6 7 8 9 9 8 8 8 10 12 11 11 11 12 12 11 10 9 9 9 10 10 11 12 12 11 11 11 12
14 14 14 13 12 12 12 12 11 10 9 9 8 8 7 7 7 7 7 7 7 6 5 4 3 3 3 2 1 5 8 10 9 9 9 9 8 8 8 8 8 8 8 8 4 3 5 6 5 2 1 2 1 1 2 3 2 2 6 9 8 8 11 11 10 9 10 12 13 12 11 11 13 13 12 11 10 10 11 12 12 13 14 13 13 12 12 13
14 14 14 12 12 12 12 12 10 9 9 8 8 8 8 8 7 7 7 6 5 4 3 2 1 1 1 1 3 6 9 11 11 10 9 10 9 9 9 9 9 9 9 7 4 5 6 4 3 2 2 2 2 1 2 1 2 5 9 10 8 9 11 11 9 9 11 13 13 12 12 12 14 15 13 12 11 11 12 12 12 13 14 13 12 12 12 13
14 13 13 12 11 11 11 11 10 9 8 8 9 9 9 9 8 7 5 4 3 1 1 2 3 3 3 2 3 8 11 11 12 11 10 10 9 9 10 10 9 9 9 8 6 7 6 4 4 4 4 3 2 2 2 2 4 5 9 10 10 9 10 11 10 10 12 13 13 12 12 13 15 16 15 14 13 13 13 12 11 12 13 13 12 12 12 12
14 13 13 12 11 10 11 11 10 8 7 8 9 10 9 8 7 5 3 2 0 2 3 5 6 4 4 5 4 8 13 13 12 12 11 11 10 10 10 10 10 9 8 8 7 6 4 6 8 5 4 2 1 3 3 5 6 5 7 9 11 11 11 12 13 12 14 14 13 12 12 13 16 16 15 15 14 14 14 12 11 11 12 12 12 12 12 12
14 12 12 12 10 10 10 10 10 8 7 9 9 10 8 7 6 4 2 1 1 2 4 6 7 4 3 5 7 10 13 14 13 13 12 12 11 10 10 10 9 9 10 9 7 5 2 4 6 3 2 1 2 4 5 8 9 7 7 8 11 15 13 12 12 13 14 14 13 12 13 15 16 16 16 15 15 15 14 13 12 12 12 12 13 13 13 13
14 12 11 12 10 9 9 9 9 8 7 9 9 8 7 6 4 3 2 1 1 3 5 4 4 5 5 7 9 11 13 14 14 14 13 13 11 10 11 11 10 10 10 8 7 5 1 2 1 2 3 2 5 6 7 9 10 10 9 8 11 15 12 9 12 14 14 14 14 14 15 16 16 17 16 16 17 16 15 15 13 13 14 14 14 14 14 14
14 11 11 11 9 8 8 9 9 8 7 8 8 7 6 4 3 2 2 2 2 4 6 4 2 3 6 9 11 12 14 14 13 14 14 11 10 10 10 11 10 10 8 7 8 4 3 2 3 2 2 4 5 7 9 11 11 11 9 8 10 13 10 10 13 13 13 14 15 15 15 16 16 16 16 16 17 17 17 17 16 16 17 17 16 16 16 14
14 11 10 10 9 8 7 8 8 7 7 8 7 6 5 4 3 2 1 2 2 5 6 7 6 3 6 11 11 13 16 15 13 12 13 11 10 10 9 10 8 7 6 7 10 6 2 2 5 4 4 7 9 10 11 11 12 11 9 9 11 13 12 13 14 12 13 14 15 16 16 17 17 17 17 17 17 17 17 17 17 18 18 18 17 17 17 14
14 11 9 9 9 8 7 7 7 7 7 6 6 4 5 5 3 2 1 0 1 4 4 7 8 4 6 10 12 15 16 16 13 11 12 11 10 7 7 10 8 6 5 4 6 5 3 4 5 7 9 9 10 11 11 10 11 10 9 11 12 12 12 14 14 13 14 13 14 17 17 17 18 18 18 17 17 17 17 18 18 18 18 17 17 16 16 15
14 11 9 9 8 7 6 6 6 6 5 5 4 3 4 4 3 2 1 1 1 3 2 5 8 7 7 10 14 16 15 15 12 11 12 10 9 7 8 12 11 6 5 6 6 6 8 7 5 8 10 9 9 10 9 8 9 10 10 12 13 13 13 14 14 14 15 14 14 18 17 17 18 18 18 17 17 17 18 19 18 18 18 17 17 17 17 16
14 11 8 8 8 7 6 5 6 6 5 4 3 3 4 4 3 2 1 1 1 4 4 6 10 11 12 14 17 17 15 13 11 12 13 11 10 8 10 11 11 8 5 6 8 8 9 8 6 8 9 9 11 11 10 10 9 9 12 13 12 14 14 14 14 14 16 16 16 17 17 17 18 18 19 18 18 18 18 19 18 18 19 19 19 18 17 17
14 11 9 7 7 7 6 5 5 5 4 3 3 3 4 3 3 3 1 1 1 4 6 10 12 10 13 16 18 19 16 12 10 11 12 11 9 6 6 5 4 7 4 7 11 9 6 6 6 7 8 10 14 14 12 12 9 7 11 12 10 12 13 14 16 16 17 17 17 18 17 18 19 19 19 19 18 18 18 18 19 19 20 20 19 19 18 17
13 12 9 7 7 7 6 5 4 4 3 2 2 3 3 3 3 3 1 1 2 3 7 13 13 10 15 15 15 17 14 9 8 9 11 10 4 3 5 2 3 3 3 9 13 10 5 5 6 7 10 13 13 12 11 10 10 8 8 9 10 11 12 14 15 16 17 17 17 18 18 17 18 18 18 19 18 17 17 18 18 18 19 19 19 18 17 16
13 12 9 7 7 7 6 5 4 3 2 1 2 3 1 2 2 1 2 3 3 4 7 13 14 14 18 17 17 15 8 8 8 6 11 10 6 8 8 3 5 5 7 15 18 12 6 4 5 7 11 15 14 12 11 9 10 9 7 10 12 12 12 12 14 17 17 17 16 16 17 17 17 18 18 18 17 16 16 17 17 16 17 17 17 17 16 15
13 12 9 7 8 7 6 5 4 3 2 1 2 3 1 1 1 1 2 3 4 7 9 12 13 14 15 18 21 14 5 10 10 6 12 10 9 12 11 7 4 7 14 16 11 5 3 5 4 6 6 11 13 10 8 6 7 9 10 12 13 13 12 11 12 14 14 15 15 14 16 16 15 17 16 16 16 15 16 16 15 15 16 16 16 15 14 14
13 13 10 8 8 7 7 5 4 3 2 1 3 4 3 2 1 1 4 4 4 6 10 13 12 13 15 18 20 11 5 10 6 10 15 9 9 12 10 4 3 7 11 9 4 6 1 8 6 5 3 4 8 8 8 9 9 10 10 9 9 11 12 12 13 12 11 13 14 14 14 13 14 16 16 15 15 15 15 15 15 15 15 15 15 14 13 12
13 12 11 9 8 8 7 6 4 3 3 2 3 4 4 4 3 3 4 6 7 5 9 14 14 17 20 19 17 12 6 8 5 10 15 11 11 13 6 1 4 6 6 7 3 6 2 3 4 3 4 4 5 8 11 11 10 12 11 8 6 8 8 9 11 11 12 14 14 13 13 12 12 14 14 14 14 13 14 14 14 14 13 13 13 13 12 12
14 12 11 10 9 9 8 7 6 4 3 3 4 4 5 5 5 5 3 6 8 5 7 12 13 20 21 17 18 13 5 8 8 7 12 14 12 9 6 4 4 5 6 10 4 5 4 4 3 1 4 6 5 9 10 9 8 9 10 6 4 6 8 10 11 11 13 13 12 11 12 12 11 11 12 12 12 12 11 11 12 12 11 12 12 12 12 12
15 13 12 10 10 10 9 8 7 5 4 4 5 5 7 6 6 6 4 5 7 6 7 11 13 18 18 16 16 13 8 9 9 8 12 16 11 4 6 7 7 8 5 5 3 4 5 4 3 1 3 5 5 9 9 6 6 6 7 6 7 7 4 8 8 9 11 12 11 12 11 11 11 10 9 10 10 9 10 10 11 11 10 11 11 11 11 11
16 14 12 12 11 10 10 8 7 7 6 5 6 6 7 8 7 7 6 8 8 7 8 11 14 16 18 18 12 9 12 10 9 11 12 14 10 2 4 6 7 8 6 4 4 5 2 2 2 2 2 3 3 6 6 4 3 1 4 5 4 1 3 5 6 8 10 11 12 12 9 8 9 9 7 8 8 8 9 9 10 10 10 10 10 10 10 11
18 15 13 12 12 11 11 10 9 8 7 7 7 7 8 9 9 7 7 10 10 8 9 11 14 15 17 19 11 9 13 9 11 15 12 10 8 5 7 8 6 5 7 6 2 1 4 3 3 3 1 1 2 2 3 3 2 3 4 6 4 5 10 10 10 10 10 10 12 11 9 7 7 7 6 7 8 8 8 8 9 9 9 9 10 10 10 10
19 17 15 13 13 13 12 11 10 10 9 8 8 9 9 9 10 8 8 11 10 9 10 11 13 15 18 18 13 12 13 10 12 14 11 10 8 7 9 7 6 5 6 5 6 8 5 6 6 3 2 1 3 5 6 3 5 5 6 7 2 5 10 9 10 11 9 9 10 10 8 6 6 5 6 7 8 7 8 8 8 9 9 10 10 10 10 10
20 18 16 15 14 14 13 13 12 11 11 9 9 10 10 9 10 10 8 10 10 9 10 11 12 17 19 16 11 11 13 12 13 11 9 10 8 7 7 7 7 5 3 3 8 11 8 9 4 1 1 3 3 4 6 3 6 5 3 4 5 6 6 8 10 9 7 6 7 10 9 8 7 6 6 6 7 7 7 7 8 10 11 12 11 11 10 10
21 20 17 16 16 15 15 14 13 14 12 11 11 11 9 9 10 10 9 10 10 8 11 13 13 16 18 14 10 11 12 14 14 11 9 10 10 9 7 7 8 6 2 5 7 10 6 3 5 5 2 5 3 5 7 4 3 1 0 1 7 7 4 7 10 8 7 5 5 8 8 8 9 7 6 5 6 7 7 7 8 11 12 12 12 12 11 10
22 21 19 17 17 17 16 16 15 15 13 12 12 10 9 11 12 10 10 11 10 10 12 14 15 16 16 13 12 13 13 14 17 13 9 11 12 12 9 7 6 7 5 9 8 7 5 5 8 6 3 7 6 5 5 4 4 2 0 1 5 6 3 4 6 5 6 6 5 5 5 6 7 5 4 5 4 5 7 7 8 10 10 11 12 12 12 11
23 22 20 19 18 18 17 17 17 16 15 14 12 10 12 14 13 11 11 12 12 14 15 15 18 20 16 13 15 17 14 14 17 16 13 15 15 14 13 8 9 9 7 9 7 5 6 9 8 4 3 7 7 7 6 3 4 3 2 3 5 4 2 2 3 3 5 7 6 7 7 4 4 4 3 3 3 4 5 6 6 7 8 10 11 11 12 11
24 22 21 20 20 19 19 18 18 17 17 15 12 13 15 15 14 13 14 14 14 16 17 18 20 21 18 14 15 17 16 12 12 12 12 15 16 16 15 9 11 11 8 7 5 5 9 9 5 2 3 7 7 6 6 4 2 3 4 4 1 1 2 2 2 2 2 5 6 7 8 6 5 6 3 1 1 2 4 3 4 5 7 8 9 10 10 11
24 24 22 21 21 21 21 20 19 19 18 15 14 15 16 16 15 15 16 17 18 19 19 20 21 22 22 19 16 17 17 13 12 13 15 14 13 15 12 7 10 10 11 10 4 4 9 10 5 4 5 6 5 3 3 5 4 2 3 4 3 4 2 1 0 0 1 5 7 6 8 9 8 7 5 2 1 1 2 1 3 4 6 8 9 9 9 10
25 25 24 23 23 23 22 21 21 20 18 16 16 17 17 18 18 17 18 19 20 21 21 23 23 22 22 23 19 16 15 12 11 16 17 15 11 12 12 9 6 7 11 11 5 6 12 11 7 7 7 4 3 3 4 4 5 1 2 2 3 5 5 1 1 2 1 1 5 7 8 9 8 7 5 3 2 1 1 2 3 5 6 7 8 9 9 9
27 26 25 25 24 24 24 23 21 19 18 18 18 18 18 18 18 18 20 21 22 24 24 25 26 24 22 22 23 20 17 14 13 17 15 14 11 11 14 14 10 5 9 11 11 12 14 12 10 9 9 6 3 6 6 5 5 3 1 2 5 6 6 5 4 4 2 1 2 6 9 10 10 8 5 4 4 3 3 3 4 5 7 7 8 9 9 9
29 27 27 27 26 26 26 24 22 20 20 20 19 19 19 18 18 19 21 23 23 25 24 24 26 26 23 22 25 25 21 16 15 15 12 11 11 13 15 14 13 11 12 14 16 15 12 11 12 10 9 9 11 10 11 8 7 6 2 4 6 6 6 7 6 5 4 2 2 7 10 10 9 9 7 6 4 3 3 3 5 6 7 8 8 9 9 9
31 30 29 29 28 28 28 25 24 23 22 22 22 21 20 19 19 21 23 25 25 25 24 23 23 24 24 26 26 22 18 15 14 12 9 10 12 12 13 14 13 15 16 15 14 13 11 12 13 12 11 11 12 10 9 8 7 6 5 6 6 5 7 9 7 6 5 3 3 7 9 9 9 8 9 8 5 4 3 3 5 6 7 9 10 9 9 9
32 31 30 31 29 29 29 26 24 23 23 24 24 23 21 20 21 21 23 26 26 26 27 25 23 23 26 30 28 21 19 16 13 12 9 10 10 9 10 12 12 15 17 15 11 10 12 14 14 13 13 12 11 10 7 8 9 8 7 6 5 5 8 10 8 7 8 7 6 8 9 10 10 8 8 8 6 5 5 5 5 6 7 9 10 10 9 9
32 31 31 32 31 30 29 27 26 26 26 26 25 23 22 21 22 22 23 26 27 28 29 25 22 22 25 28 27 22 21 19 16 14 9 9 9 10 9 10 13 16 17 14 10 10 13 13 13 14 14 12 12 11 9 10 10 10 9 7 6 7 10 10 10 10 10 9 8 9 10 10 11 11 10 9 7 6 6 5 6 7 8 9 10 10 10 9
34 34 33 32 31 30 30 30 29 27 26 27 27 25 23 22 22 22 23 26 28 29 29 26 24 25 24 26 26 23 20 20 19 18 13 8 10 13 13 13 16 17 14 12 11 12 13 12 13 15 14 12 11 11 11 9 7 8 9 8 7 10 12 11 11 12 12 10 10 10 10 10 11 13 11 10 10 9 7 7 7 8 9 10 10 10 9 8
36 34 33 33 32 32 33 32 29 26 26 28 29 26 23 23 22 21 23 26 28 29 30 29 28 28 26 26 27 26 23 19 18 21 21 13 10 12 16 18 18 15 13 12 13 13 14 14 15 14 14 13 11 10 11 9 6 7 10 9 8 10 12 11 12 14 13 11 10 8 8 10 11 12 11 11 12 11 9 8 9 9 9 10 10 9 8 8
35 34 36 37 34 33 34 32 30 29 28 27 27 26 24 24 23 23 24 27 28 29 31 31 29 29 28 27 27 29 28 23 20 22 23 15 9 11 15 17 17 13 12 14 15 14 15 16 16 13 13 14 10 7 9 9 8 8 9 10 9 10 11 11 13 15 14 13 13 10 8 11 11 10 11 12 12 11 11 10 10 10 9 9 10 8 7 8
37 38 39 39 35 33 34 33 33 33 30 27 27 28 27 25 24 24 24 26 28 28 28 28 28 27 27 27 28 29 30 28 25 24 22 18 15 16 15 14 15 14 13 14 14 14 15 16 14 12 12 12 9 7 8 9 8 8 8 9 10 10 11 12 14 16 15 14 15 14 12 14 13 11 12 13 11 11 12 12 12 10 8 8 9 7 6 7
41 41 39 38 37 35 35 35 35 34 32 29 29 29 28 27 25 24 24 26 27 27 26 27 27 26 26 27 29 29 30 30 28 26 25 22 20 19 17 15 15 15 15 16 14 14 15 13 11 11 10 9 8 7 8 9 9 9 8 9 10 11 12 13 14 15 15 15 15 15 15 15 15 15 13 12 12 13 13 13 14 11 8 8 8 6 6 6
43 42 39 38 38 37 35 34 33 32 32 32 31 29 28 28 27 25 25 26 26 26 26 27 27 26 27 28 28 29 30 30 28 26 26 25 21 19 19 19 18 16 17 18 15 13 14 13 11 10 9 8 9 9 10 11 11 10 11 11 11 12 13 14 13 13 14 15 15 15 15 14 14 15 15 14 13 13 13 13 13 11 8 8 7 6 6 5
43 43 40 39 40 39 37 35 33 32 32 32 31 29 27 27 28 26 25 26 26 26 27 28 28 28 29 28 28 30 30 29 30 29 29 28 24 19 18 20 19 17 17 18 14 12 13 13 11 11 10 10 11 12 12 13 12 12 12 12 12 13 13 13 13 12 13 15 16 15 15 14 14 14 15 15 15 14 12 12 12 9 8 7 6 5 5 5
Wind_Direction
348 347 348 350 350 348 347 346 342 340 336 334 335 336 342 347 346 346 349 354 1 350 304 265 253 255 266 277 290 314 28 66 70 76 80 85 94 94 102 105 109 119 123 120 125 123 110 111 112 111 116 106 85 85 152 224 230 262 263 263 267 279 285 290 293 298 305 299 301 308 308 307 312 313 310 311 309 307 305 304 305 303 303 306 312 315 314 308
348 347 349 352 352 349 346 345 340 337 333 330 331 333 338 342 342 342 343 346 346 344 327 286 260 252 250 255 264 277 5 57 70 81 83 93 102 105 113 111 115 123 121 119 126 125 116 113 117 125 119 89 45 52 251 250 282 305 307 296 292 309 299 299 304 304 306 304 312 318 313 312 318 318 313 314 311 311 313 312 310 308 307 306 311 317 319 313
349 347 349 352 353 349 346 344 340 335 329 327 328 329 334 337 339 336 333 332 324 320 313 302 277 255 242 243 247 247 251 82 86 92 97 101 106 113 118 117 121 125 121 116 116 116 117 123 128 124 102 95 153 25 320 295 343 332 334 348 349 327 306 304 306 301 300 307 324 332 327 326 326 322 321 319 317 320 322 322 318 312 310 306 307 318 324 322
350 348 348 352 354 350 346 344 340 335 328 325 325 326 331 331 332 329 324 320 310 301 293 291 283 264 244 239 237 235 229 124 110 108 110 105 111 119 121 122 123 126 123 116 114 111 112 126 125 83 50 105 181 325 315 307 324 329 339 343 346 327 309 308 309 303 305 318 329 332 332 336 335 333 332 328 330 332 328 329 323 313 309 308 311 321 330 335
351 349 348 352 353 350 346 344 340 337 330 324 323 324 326 325 325 323 319 313 304 295 288 281 272 263 251 239 228 221 209 128 119 115 111 111 118 125 127 127 125 130 120 114 118 111 108 119 111 76 124 171 132 142 300 311 312 332 347 336 334 323 314 315 312 309 317 336 342 339 341 346 348 342 335 333 341 341 334 331 322 316 318 322 327 341 353 353
351 350 348 352 353 349 346 344 341 338 334 325 324 324 323 322 319 316 313 308 301 296 292 279 266 257 247 231 199 186 172 154 134 122 115 121 128 131 134 132 131 133 118 116 122 114 115 112 95 342 180 150 60 59 303 320 319 327 335 332 330 321 321 320 313 315 326 345 353 354 352 350 350 346 343 347 352 352 344 338 334 335 347 360 357 12 18 4
351 351 349 352 353 350 347 346 343 339 335 328 326 326 323 319 315 313 310 304 298 298 298 282 269 256 244 233 212 193 161 149 144 134 129 133 136 138 142 141 136 130 120 121 123 121 113 90 83 255 200 124 45 22 298 318 331 331 333 331 328 323 329 328 321 330 347 7 10 11 11 5 357 355 7 10 11 12 4 6 12 9 16 36 59 66 61 54
350 352 349 352 353 351 348 348 345 339 334 328 328 326 322 318 314 312 305 300 298 298 295 281 272 262 250 236 216 197 151 144 151 144 139 142 144 148 151 150 141 132 128 125 126 128 110 94 235 220 147 101 70 343 310 317 330 355 346 330 326 337 352 352 356 14 31 44 54 51 35 28 18 15 31 32 34 40 31 32 33 35 48 60 79 86 77 70
347 352 350 352 353 352 350 349 346 339 332 330 331 328 322 318 313 307 296 292 291 291 289 284 278 267 244 222 203 183 162 149 155 149 144 149 152 159 156 150 144 132 132 129 138 143 115 143 251 219 137 116 105 195 321 330 353 5 350 339 357 19 20 18 31 48 52 53 56 57 47 42 38 35 48 51 50 51 45 47 50 53 67 81 90 90 80 70
343 351 352 352 353 354 351 349 345 338 334 336 338 334 330 324 315 301 292 291 290 290 287 285 280 267 242 219 198 169 163 151 151 151 150 157 161 168 158 149 142 130 134 135 146 153 120 160 265 288 128 93 61 280 1 40 20 5 350 10 38 47 42 38 51 59 58 59 57 55 49 46 47 44 52 59 56 57 57 57 59 65 79 91 93 91 87 86
339 348 352 352 353 354 351 349 345 341 343 345 346 342 337 329 317 306 301 297 290 285 280 280 275 268 253 235 204 157 157 151 154 157 155 165 169 168 156 147 141 134 141 141 151 149 121 172 226 273 114 71 37 312 22 60 44 15 36 49 55 63 69 65 64 66 61 64 66 61 51 46 52 52 55 61 62 65 67 66 69 76 82 89 93 96 98 96
336 346 350 352 352 353 352 351 346 346 350 348 347 342 336 329 319 313 305 296 287 280 276 270 262 257 242 227 190 159 156 151 157 165 165 172 173 163 154 149 142 139 142 138 151 146 139 177 193 197 192 127 109 2 26 64 60 102 91 72 64 68 79 81 73 68 63 61 65 63 53 52 57 58 58 62 65 68 72 74 79 83 83 85 91 95 100 100
332 343 348 350 352 353 353 352 349 350 355 356 358 357 352 344 335 329 314 300 288 273 261 241 224 217 175 155 158 156 153 153 160 168 174 173 170 162 156 154 149 147 143 138 147 137 139 178 191 191 175 135 142 25 357 141 117 82 81 75 70 71 73 79 76 68 64 60 63 62 53 53 58 60 59 59 62 67 73 77 81 86 85 84 86 91 97 101
329 341 345 348 351 353 353 353 351 352 2 9 10 10 4 356 351 343 325 311 293 243 136 118 106 104 116 115 150 156 150 153 162 168 174 170 166 166 161 158 154 151 144 144 157 145 137 183 215 208 166 159 163 78 34 158 143 75 72 74 72 74 69 72 72 63 60 59 59 60 57 55 58 61 59 57 60 66 73 80 82 84 83 80 81 87 90 93
327 338 342 346 349 352 354 354 352 354 6 11 9 7 1 353 349 343 332 325 261 142 133 127 109 101 125 125 143 160 152 152 163 168 170 168 168 171 164 160 158 155 145 138 152 158 161 193 192 181 153 145 90 110 102 106 110 76 68 76 71 66 62 62 62 63 63 61 59 58 60 61 61 62 60 60 63 68 74 78 78 76 77 79 80 81 82 83
324 334 339 342 347 350 353 353 351 354 6 11 7 2 357 349 345 346 351 348 142 139 148 136 124 136 148 127 145 161 154 154 164 167 169 172 173 173 165 164 164 150 139 136 144 150 193 214 177 143 76 54 123 131 103 91 95 83 74 82 76 65 62 61 62 68 69 68 69 66 64 64 65 65 63 62 65 69 71 69 67 68 73 77 77 78 79 77
321 332 336 338 344 346 350 354 350 353 8 11 6 0 356 349 350 1 10 26 115 133 146 146 157 174 153 131 148 159 154 159 168 169 173 177 171 169 166 165 161 143 137 139 136 131 235 275 128 91 40 33 179 147 85 85 85 75 78 86 81 74 71 67 67 71 70 71 75 72 68 67 69 69 67 65 65 67 67 66 66 66 69 73 74 74 75 73
318 328 332 334 341 340 346 353 347 352 8 11 6 360 353 347 357 8 26 69 101 134 144 152 157 154 152 152 156 158 157 164 176 174 173 176 165 161 167 164 152 145 150 146 142 163 263 296 2 16 51 60 145 140 98 92 81 70 78 77 76 84 87 75 72 76 76 73 75 76 73 70 71 70 68 67 67 69 70 69 69 68 69 71 70 69 70 72
314 323 328 330 335 334 341 350 345 352 9 14 8 358 348 339 344 11 59 88 103 137 148 157 146 133 172 168 157 157 162 164 174 176 169 165 158 158 162 153 132 132 148 145 149 171 247 12 29 50 110 96 106 113 98 92 88 84 83 78 78 87 92 82 78 81 78 73 75 77 73 71 71 69 67 66 66 69 71 70 69 69 69 69 68 68 72 77
310 318 323 325 331 327 332 345 343 350 8 19 10 359 355 337 326 6 112 121 115 167 181 170 152 146 183 165 145 154 165 163 165 170 164 156 149 157 153 129 112 123 132 113 129 132 87 57 53 82 102 100 95 97 89 76 84 92 88 87 87 84 84 85 82 78 75 75 77 75 70 68 70 70 69 67 66 65 67 69 68 68 68 69 69 67 69 73
305 312 316 319 325 320 322 339 342 346 4 22 16 11 14 345 320 6 133 218 219 186 199 183 161 144 167 160 143 153 163 161 166 163 157 154 144 156 154 118 98 106 112 89 87 85 86 81 66 77 77 76 81 89 91 86 88 91 87 86 85 79 76 85 85 74 72 76 77 77 74 71 71 74 73 69 68 66 65 67 68 68 68 68 70 67 66 67
301 306 309 312 317 314 313 331 337 342 357 22 25 25 30 3 325 5 130 231 207 169 171 187 172 155 169 165 151 160 162 157 166 160 158 160 146 155 168 132 87 76 78 71 68 63 85 98 83 70 64 69 79 81 89 103 108 97 90 86 81 81 78 83 85 76 75 76 74 76 77 78 76 76 74 70 69 69 68 68 68 69 69 68 68 67 67 66
295 299 302 304 310 308 302 319 330 334 348 24 39 32 33 11 336 5 5 314 137 186 193 181 171 163 171 166 161 164 154 147 163 167 166 159 143 138 155 154 84 87 60 35 47 40 60 95 75 65 76 81 83 88 93 99 106 97 93 90 80 79 78 83 87 82 81 80 77 77 74 77 78 74 73 73 72 70 68 69 69 69 69 68 68 66 66 66
289 293 295 294 301 301 292 305 318 324 342 25 62 53 31 358 346 12 54 109 119 184 195 175 163 160 161 158 162 157 142 155 182 181 169 143 130 125 92 332 286 120 41 31 42 26 24 69 58 60 86 89 86 94 98 99 103 92 85 88 81 78 78 81 81 77 81 81 78 78 76 76 77 74 73 73 71 68 66 66 66 69 71 71 70 68 64 62
282 286 287 285 291 293 284 291 300 308 327 331 104 98 48 346 334 351 119 123 109 125 165 168 154 156 163 157 156 149 143 179 168 179 182 150 165 175 131 162 198 134 66 44 35 23 30 53 60 67 79 88 95 97 89 88 97 94 87 87 83 80 78 74 71 70 75 74 71 76 78 76 76 75 74 73 70 67 65 66 65 65 68 69 69 68 62 55
275 280 280 275 281 284 275 274 280 294 308 267 147 138 157 158 287 306 132 125 103 117 153 168 153 153 160 158 161 156 173 184 151 174 195 163 159 159 132 147 161 97 83 63 29 3 355 327 21 67 70 89 98 95 89 86 89 95 94 91 87 81 73 66 71 74 72 70 73 77 75 73 75 75 73 71 69 66 65 64 63 59 59 60 59 59 55 49
267 273 273 267 270 274 265 260 265 280 294 255 172 162 167 159 176 145 129 140 127 128 155 164 159 158 159 167 168 139 139 192 175 174 178 150 133 124 104 126 54 60 91 96 209 208 271 308 330 29 8 75 86 78 93 106 95 88 85 84 84 76 68 63 63 67 70 75 76 74 70 69 74 74 71 69 64 63 65 63 61 56 52 51 49 47 44 39
259 265 267 260 259 265 259 252 252 255 268 248 195 183 170 152 168 166 150 160 160 154 163 162 163 168 170 174 160 115 121 194 167 166 172 160 147 122 101 188 69 83 106 86 231 235 206 264 293 349 358 19 78 88 92 99 92 86 83 77 75 74 69 64 64 67 76 82 77 71 72 73 74 74 70 68 62 57 61 63 62 58 50 47 44 40 37 32
253 256 258 253 250 256 251 241 238 234 243 234 209 195 174 158 162 169 169 162 158 156 173 172 170 171 173 173 159 142 175 176 137 172 182 167 165 136 140 187 107 140 139 77 50 278 238 209 243 236 47 43 112 123 104 95 90 93 95 93 123 124 86 61 68 78 78 80 79 69 68 67 66 68 66 66 64 58 57 62 63 59 52 46 42 39 38 33
248 248 250 245 241 247 245 237 233 225 225 224 220 202 174 167 166 163 156 147 148 153 174 177 172 173 174 174 170 162 169 166 151 183 180 166 176 135 126 156 135 155 170 93 114 226 207 207 255 239 57 46 113 115 95 85 80 97 130 157 181 173 113 62 70 85 81 75 71 61 57 61 59 58 63 66 68 66 61 60 60 58 54 49 46 43 40 36
245 242 243 238 234 241 241 233 225 221 219 215 222 210 177 172 172 164 152 149 157 159 166 177 175 175 174 171 175 159 156 175 168 165 171 170 180 145 111 152 141 151 184 186 225 259 212 152 262 262 29 29 82 81 57 51 52 123 193 204 215 188 76 71 57 69 86 74 62 61 57 62 65 62 68 72 75 77 69 62 58 54 51 48 46 45 41 39
242 239 237 233 230 234 233 227 218 216 218 213 218 211 186 179 174 164 152 156 171 172 164 180 181 179 175 166 169 160 156 182 179 161 165 171 183 186 155 170 182 168 182 180 137 108 124 132 245 262 347 22 83 79 332 343 321 302 325 309 301 53 59 63 49 49 77 71 55 60 57 51 62 68 73 73 72 73 69 67 61 53 48 43 40 39 37 37
240 237 234 228 225 227 228 225 217 213 216 212 213 207 194 187 175 170 168 163 177 189 177 181 181 181 180 169 171 174 162 182 187 166 168 176 193 200 153 163 212 170 170 183 123 136 191 262 284 345 24 207 147 186 223 245 262 285 347 337 323 61 42 50 59 51 64 73 55 46 39 36 46 64 75 74 72 67 63 61 58 54 49 44 40 37 34 31
238 235 232 225 220 222 224 221 214 213 216 211 211 209 198 192 179 173 177 168 175 193 183 178 182 184 183 170 171 180 167 176 182 169 180 185 190 200 154 162 210 170 159 198 143 163 231 276 277 9 68 158 141 229 243 245 255 272 346 22 74 68 37 56 63 44 44 75 57 32 20 19 27 45 63 75 83 75 66 58 53 52 46 40 38 34 30 28
236 234 230 224 218 217 220 218 213 213 215 210 211 210 196 190 189 180 175 174 177 184 180 181 184 184 180 172 183 197 177 171 173 173 192 190 185 195 183 193 199 159 200 245 183 188 217 249 245 250 193 153 155 266 279 296 288 298 296 102 71 58 47 60 52 39 36 41 34 25 16 9 13 26 35 52 76 73 65 58 51 49 43 37 34 31 28 26
234 231 228 223 217 215 217 215 213 213 212 213 209 203 193 187 185 176 170 177 178 176 183 186 179 176 176 175 192 204 192 176 171 175 201 206 191 177 176 225 210 146 196 234 207 195 167 175 239 255 200 189 186 197 222 269 292 326 344 142 78 51 19 43 50 44 25 18 20 19 17 6 2 12 23 32 53 63 59 49 43 42 37 35 32 29 27 22
230 228 225 221 215 214 216 214 213 211 210 212 202 190 195 189 182 176 172 178 182 180 183 183 176 174 176 186 194 196 198 192 174 170 193 212 206 175 159 206 221 174 205 232 205 202 188 193 234 261 236 230 206 193 220 266 300 305 359 94 113 91 37 14 53 65 20 11 6 351 355 3 4 14 32 36 33 60 65 46 33 29 24 28 27 24 24 19
227 225 223 220 214 212 214 213 212 211 210 208 196 192 197 188 182 187 181 176 183 186 182 182 181 173 170 190 200 189 190 194 176 174 200 211 202 176 159 193 218 190 199 230 216 225 213 207 236 238 226 244 221 212 246 276 308 314 356 25 38 356 10 336 352 81 50 0 349 341 342 346 359 7 8 23 8 51 69 38 12 12 9 15 17 14 15 13
223 222 220 218 213 211 213 213 211 211 209 203 194 196 199 192 189 194 189 180 184 189 181 181 186 176 171 182 188 188 188 184 187 199 208 208 186 162 160 211 234 206 200 207 215 264 227 214 222 183 184 243 240 209 238 266 274 292 2 2 324 315 337 132 207 216 68 354 336 328 336 344 353 352 340 329 336 46 73 9 341 352 354 358 2 3 2 2
221 220 218 215 212 211 213 213 212 211 207 201 199 199 198 200 199 195 193 188 186 189 183 182 187 183 183 180 169 184 195 180 206 219 209 211 201 164 167 188 205 227 223 198 178 260 242 228 230 201 177 187 228 223 208 236 258 215 69 336 281 282 295 331 286 258 178 351 312 307 323 334 333 329 324 311 301 312 286 292 320 332 339 347 348 349 349 348
220 218 217 214 211 211 213 213 212 209 203 200 203 203 202 206 203 196 196 191 188 192 189 187 187 181 186 182 166 179 192 181 214 230 212 212 214 194 196 188 167 212 241 200 187 225 234 228 223 203 182 163 175 244 233 210 248 259 114 295 282 266 271 282 275 265 258 227 294 309 314 314 312 315 312 288 288 297 285 291 311 318 325 333 335 337 338 336
219 216 215 214 210 209 212 213 210 206 202 201 204 206 207 207 202 198 199 195 193 197 194 194 192 182 185 186 175 180 188 186 211 225 210 208 213 215 217 201 183 201 216 201 202 219 225 221 217 202 188 172 167 210 234 221 243 267 229 243 273 275 272 271 258 267 293 317 328 312 305 301 303 310 307 292 288 281 270 292 301 305 315 320 325 328 328 328
217 215 214 214 210 209 210 210 209 204 200 203 205 206 207 208 204 201 199 198 199 200 198 200 200 191 187 185 182 183 181 187 217 232 228 219 213 219 218 204 207 221 218 208 212 224 221 211 214 210 204 194 179 196 233 234 237 252 246 246 256 264 278 280 273 275 274 246 253 280 290 296 298 303 300 290 286 280 277 290 293 300 313 312 316 322 321 321
217 216 215 213 210 210 210 209 209 204 201 204 207 207 206 206 205 202 198 199 202 202 200 201 201 198 191 186 187 190 179 181 210 225 236 235 210 207 213 206 217 228 224 218 218 230 223 211 216 218 209 212 209 200 206 222 225 221 226 250 253 240 261 275 280 281 274 267 268 274 289 301 299 297 290 279 278 286 286 290 293 302 309 305 307 314 315 314
215 215 214 214 211 209 209 209 207 203 202 206 209 211 210 205 203 202 200 199 203 204 203 203 203 200 198 196 198 197 184 185 198 200 220 255 230 209 214 214 220 226 224 218 217 230 224 215 226 228 216 215 218 209 200 209 220 216 212 231 247 240 251 267 271 269 273 280 282 281 291 299 296 295 290 281 281 280 277 286 292 297 302 301 303 307 308 307
213 212 211 212 211 209 208 210 209 206 204 205 208 211 211 209 206 203 202 202 203 205 205 205 205 203 203 204 206 205 197 194 196 191 196 237 239 220 222 230 231 228 220 206 213 231 226 219 230 231 224 218 213 219 224 214 213 223 221 223 233 240 249 261 266 267 273 281 285 286 289 292 293 294 291 286 287 282 273 280 287 290 299 302 302 304 303 300
214 213 210 209 209 208 208 209 209 208 208 207 207 208 208 209 208 203 205 207 205 206 206 205 205 205 205 205 205 209 209 201 196 195 197 214 244 231 222 233 236 227 213 200 205 223 228 229 234 231 229 224 208 215 236 233 219 225 232 237 238 243 250 255 261 266 270 278 284 285 286 290 294 296 292 286 284 283 283 288 292 295 300 302 301 302 298 295
212 210 210 210 208 206 207 209 207 207 211 210 208 208 208 208 208 204 206 209 208 207 207 206 206 205 205 206 208 211 212 207 202 204 203 210 242 232 214 227 236 222 211 207 201 209 225 232 235 237 239 234 214 204 227 235 233 231 242 258 256 252 252 250 257 265 269 275 278 278 283 287 288 287 283 277 275 282 290 292 294 298 303 300 296 294 292 293
210 210 211 211 209 205 205 207 208 209 211 209 205 208 211 210 210 208 208 210 212 210 208 209 210 208 205 208 212 214 214 211 206 209 209 204 217 226 217 224 234 222 217 219 207 208 223 228 232 240 244 237 224 212 215 219 225 231 245 259 262 263 260 252 254 262 268 272 274 277 281 284 283 277 270 271 279 290 296 295 295 299 301 292 286 284 285 290
211 212 212 211 209 206 204 205 206 208 211 208 205 207 209 210 211 211 210 212 214 213 210 210 211 210 207 209 213 215 216 214 210 212 214 205 209 224 222 221 229 222 222 225 212 209 226 230 229 237 237 229 225 222 217 215 221 233 243 251 259 265 264 259 256 260 266 269 270 273 275 278 284 284 281 286 295 298 299 297 295 298 297 283 277 277 279 284
213 213 212 211 210 208 206 206 206 208 211 210 207 207 208 208 210 211 212 214 215 214 213 213 211 211 211 212 215 216 215 212 212 217 219 211 209 220 222 220 224 223 227 230 217 208 223 229 225 225 225 226 226 219 216 219 222 230 236 243 253 259 262 262 259 256 261 267 268 270 273 278 286 289 293 298 299 297 297 294 291 293 291 279 273 275 277 282
214 215 213 211 211 209 206 205 205 208 212 211 209 209 208 207 209 211 214 215 216 214 214 215 214 212 212 212 215 219 216 209 210 217 220 216 214 220 223 223 225 229 235 240 234 223 225 227 224 218 215 221 222 215 217 222 224 230 237 241 248 256 260 264 262 256 258 267 271 273 279 284 286 290 295 296 295 296 295 291 288 286 279 273 272 271 273 281